Regional Weather Roundup
Issued by NWS

Home | Current Version | Previous Version | Text Only | Print | Product List | Glossary On
Versions: 1 2 3 4 5 6 7 8 9 10 11 12 13 14 15 16 17 18 19 20 21 22 23 24 25 26 27 28 29 30 31 32 33 34 35 36 37 38 39 40 41 42 43 44 45 46 47 48 49 50
000
ASUS43 KLOT 060121
RWRIL

ILLINOIS REGIONAL WEATHER ROUNDUP
NATIONAL WEATHER SERVICE CHICAGO/ROMEOVILLE IL
800 PM CDT TUE MAY 05 2015

NOTE: "FAIR" INDICATES FEW OR NO CLOUDS BELOW 12,000 FEET WITH NO
SIGNIFICANT WEATHER AND/OR OBSTRUCTIONS TO VISIBILITY.

* THESE STATIONS ARE NOT UNDER NWS QUALITY CONTROL. THEY ALSO MAY NOT
  REPORT WEATHER SUCH AS PRECIPITATION OR FOG.

ILZ001-002-007-009-015-016-024-060200-
NORTHWEST ILLINOIS

CITY           SKY/WX    TMP DP  RH WIND       PRES   REMARKS
MOLINE         MOCLDY    65  60  84 E15       30.12R HAZE
STERLING*      CLOUDY    57  54  88 E16       30.17R
SAVANNA*       CLOUDY    58  55  88 E9        30.16R
$$

ILZ003-004-008-010-011-017-018-060200-
NORTH CENTRAL ILLINOIS

CITY           SKY/WX    TMP DP  RH WIND       PRES   REMARKS
ROCKFORD       CLOUDY    53  49  86 E8        30.22R
FREEPORT*      CLOUDY    52  50  93 E10       30.20R
ROCHELLE*      CLOUDY    54  52  92 E12       30.20R
DE KALB*       CLOUDY    51  49  93 E13       30.20R FOG
PERU*          MOCLDY    61  57  85 NE12      30.16R FOG
$$

ILZ005-006-012>014-019>023-060200-
NORTHEAST ILLINOIS

CITY           SKY/WX    TMP DP  RH WIND       PRES   REMARKS
CHICAGO-OHARE  FOG       49  48  97 NE8       30.21R VSB 3/4
CHICAGO-MIDWAY CLOUDY    55  49  80 N7        30.20R
AURORA         CLOUDY    54  49  83 E10       30.20R HAZE
LANSING*       CLOUDY    51  47  87 N9        30.19S FOG
JOLIET*        CLOUDY    57  54  89 NE7       30.19R FOG
WAUKEGAN       CLOUDY    46  45  96 N7        30.22S FOG
DUPAGE AIRPORT CLOUDY    51  49  92 NE8       30.20R
KANKAKEE*      CLOUDY    60  59  94 NE6       30.17S FOG
WHEELING       FOG       48  47  96 NE7       30.23S VSB 1/4
MORRIS*        MOCLDY    57  54  88 NE8G17    30.16R FOG
ROMEOVILLE*    CLOUDY    54  52  93 NE10      30.19R FOG
NORTHERLY ISL    N/A     48  46  93 N9          N/A
$$

LMZ740>746-060200-
SOUTHERN LAKE MICHIGAN

STATION/POSITION SKY/WX   TEMP    WIND        PRES    VSBY  WAVE
                          AIR SEA DIR/SP/G                  HT/PER
                          (F)     (DEG/KT/KT) (MB)    (MI)  (FT/S)
HARRISON CRIB              45     350/  9/ 10   N/A
BURNHAM HARBOR             47     360/  8/ 11   N/A
CALUMET HARBOR             47     340/  7/  9   N/A
BURNS HARBOR               53      70/  6/  7 1022.4S
MICHIGAN CITY              56      40/  5/  6   N/A
MICHIGAN CITY 6N           52 50   40/  6/  8   N/A           1/ 4
ST. JOSEPH                 54 49   90/  8/ 10   N/A           1/ 2
$$

ILZ025>027-034>036-040-047-049-050-058-095>099-060200-
WEST-CENTRAL ILLINOIS

CITY           SKY/WX    TMP DP  RH WIND       PRES   REMARKS
QUINCY         CLOUDY    75  58  55 S6        30.09R
GALESBURG*     PTCLDY    70  64  83 E8        30.11R
MACOMB*        PTCLDY    75  65  72 E3        30.11R
JACKSONVILLE*  CLOUDY    81  56  42 S8        30.10R HX  81
PITTSFIELD*    CLOUDY    78  57  47 S6        30.11R
$$

ILZ028>032-037-038-041>044-048-051>054-059>061-060200-
CENTRAL ILLINOIS

CITY           SKY/WX    TMP DP  RH WIND       PRES   REMARKS
PONTIAC        MOCLDY    65  63  92 NE14      30.15R FOG
BLOOMINGTON    MOCLDY    70  66  86 NE12      30.15R
DECATUR        MOCLDY    77  53  43 S8        30.11R
PEORIA         MOCLDY    74  65  73 E13       30.11R
LACON*         PTCLDY    67  63  86 NE8       30.13R FOG
LINCOLN*       PTCLDY    74  65  74 NE8       30.08R
SPRINGFIELD    PTCLDY    79  55  43 S10       30.10R
TAYLORVILLE    CLOUDY    77  55  47 SW10      30.12R
$$

ILZ033-039-045-046-055>057-062-063-060200-
EAST-CENTRAL ILLINOIS

CITY           SKY/WX    TMP DP  RH WIND       PRES   REMARKS
CHAMPAIGN      MOCLDY    76  51  41 S9        30.12R
DANVILLE*      CLOUDY    71  58  64 N9        30.11R
RANTOUL*       CLOUDY    73  65  78 NE7       30.13R
MATTOON        PTCLDY    76  56  49 S5        30.12R
PARIS*         MOCLDY    74  55  51 S3        30.15R
$$

ILZ079-100>102-060200-
SOUTHWEST ILLINOIS

CITY           SKY/WX    TMP DP  RH WIND       PRES   REMARKS
ALTON          PTCLDY    73  61  64 SE6       30.11R
BELLEVILLE     PTCLDY    74  62  65 SE8       30.11R
CAHOKIA*       PTCLDY    79  59  50 SE8G20    30.10R HX  80
SPARTA*        PTCLDY    70  62  78 SE5       30.13S
$$

ILZ064>066-069>071-074>076-080>082-084>086-088>090-092>094-060200-
SOUTH-CENTRAL ILLINOIS

CITY           SKY/WX    TMP DP  RH WIND       PRES   REMARKS
CARBONDALE     MOCLDY    73  59  61 S3        30.13R
CAIRO*         PTCLDY    76  56  49 SE3       30.13R
EFFINGHAM*     PTCLDY    75  53  45 CALM      30.14R
MARION         CLOUDY    75  63  64 CALM      30.14R
MT. VERNON     PTCLDY   N/A N/A N/A CALM      30.15R
CENTRALIA*     PTCLDY    74  56  54 SW5       30.14R
SALEM*         MOCLDY    79  54  41 S5        30.14R
METROPOLIS*    PTCLDY    73  57  57 CALM      30.13R
$$

ILZ067-068-072-073-078-083-087-091-060200-
SOUTHEAST ILLINOIS

CITY           SKY/WX    TMP DP  RH WIND       PRES   REMARKS
FLORA*         PTCLDY    74  54  49 S6        30.14R
FAIRFIELD*     CLEAR     77  55  46 S3        30.13R
HARRISBURG*    PTCLDY    76  56  50 S5        30.15R
ROBINSON*      CLEAR     76  52  42 S6        30.15R
CARMI*         CLEAR     72  52  49 S3        30.14R
$$

ABBREVIATIONS USED IN REMARKS
   TC - TEMPERATURE IN CELSIUS
  WCI - WIND CHILL INDEX
   HX - HEAT INDEX
  VSB - VISIBILITY
$$




USA.gov is the U.S. government's official web portal to all federal, state and local government web resources and services.